TAP1454 LPPT-GMMX

Flight info

Callsign TAP1454
Flight time 1h 10m
Altitude 35000
Route DUZOP DCT AMSEL UR722 MABAP
Aircraft A321/M-SDE3FGHIRWY/LB1

Departure

Time 2026-05-01 12:06
Airport Lisbon Humberto Delgado Airport (LPPT)

Arrival

Time 2026-05-01 13:16
Airport Marrakesh Menara Airport (GMMX)
Time Latitude Longitude Altitude Speed Heading
2026-05-01 11:24 38.76861 -9.13708 347 ft 0 kts 78°
2026-05-01 11:35 38.76861 -9.13709 347 ft 0 kts 78°
2026-05-01 11:52 38.76856 -9.13740 356 ft 4 kts 78°
2026-05-01 11:52 38.76851 -9.13774 353 ft 4 kts 81°
2026-05-01 11:52 38.76850 -9.13807 357 ft 4 kts 107°
2026-05-01 11:52 38.76862 -9.13833 355 ft 4 kts 151°
2026-05-01 11:53 38.76872 -9.13839 354 ft 1 kts 168°
2026-05-01 11:55 38.76844 -9.13831 356 ft 8 kts 168°
2026-05-01 11:55 38.76788 -9.13816 353 ft 9 kts 168°
2026-05-01 11:55 38.76729 -9.13799 346 ft 9 kts 168°
2026-05-01 11:56 38.76672 -9.13784 352 ft 8 kts 168°
2026-05-01 11:56 38.76630 -9.13759 354 ft 5 kts 136°
2026-05-01 11:56 38.76620 -9.13717 351 ft 6 kts 92°
2026-05-01 11:56 38.76629 -9.13639 346 ft 10 kts 80°
2026-05-01 11:57 38.76642 -9.13551 345 ft 10 kts 78°
2026-05-01 11:57 38.76665 -9.13460 350 ft 11 kts 56°
2026-05-01 11:57 38.76727 -9.13399 349 ft 11 kts 35°
2026-05-01 11:57 38.76807 -9.13371 343 ft 16 kts 348°
2026-05-01 11:58 38.76931 -9.13407 349 ft 18 kts 349°
2026-05-01 11:58 38.77050 -9.13440 345 ft 16 kts 346°
2026-05-01 11:58 38.77251 -9.13491 356 ft 16 kts 347°
2026-05-01 11:59 38.77362 -9.13520 354 ft 16 kts 347°
2026-05-01 11:59 38.77463 -9.13547 349 ft 14 kts 347°
2026-05-01 11:59 38.77545 -9.13569 351 ft 11 kts 347°
2026-05-01 12:00 38.77655 -9.13598 359 ft 7 kts 354°
2026-05-01 12:00 38.77704 -9.13590 355 ft 9 kts 18°
2026-05-01 12:00 38.77868 -9.13526 357 ft 13 kts 356°
2026-05-01 12:01 38.77962 -9.13550 363 ft 14 kts 348°
2026-05-01 12:01 38.78045 -9.13573 367 ft 11 kts 348°
2026-05-01 12:01 38.78155 -9.13603 367 ft 21 kts 348°
2026-05-01 12:01 38.78312 -9.13645 372 ft 25 kts 349°
2026-05-01 12:02 38.78464 -9.13689 378 ft 20 kts 347°
2026-05-01 12:02 38.78586 -9.13688 380 ft 18 kts 15°
2026-05-01 12:02 38.78656 -9.13568 371 ft 19 kts 35°
2026-05-01 12:02 38.78805 -9.13482 364 ft 29 kts 22°
2026-05-01 12:03 38.79001 -9.13374 352 ft 32 kts 20°
2026-05-01 12:03 38.79207 -9.13267 351 ft 31 kts 22°
2026-05-01 12:03 38.79400 -9.13163 357 ft 29 kts 22°
2026-05-01 12:03 38.79570 -9.13076 367 ft 24 kts 22°
2026-05-01 12:04 38.79718 -9.12996 361 ft 21 kts 23°
2026-05-01 12:04 38.79768 -9.12892 355 ft 13 kts 114°
2026-05-01 12:04 38.79728 -9.12779 355 ft 15 kts 121°
2026-05-01 12:04 38.79674 -9.12770 354 ft 7 kts 202°
2026-05-01 12:05 38.79539 -9.12842 355 ft 50 kts 203°
2026-05-01 12:05 38.78136 -9.13592 369 ft 157 kts 202°
2026-05-01 12:05 38.77112 -9.14133 930 ft 154 kts 206°
2026-05-01 12:06 38.76118 -9.14663 1523 ft 157 kts 205°
2026-05-01 12:06 38.75062 -9.15254 1886 ft 177 kts 206°
2026-05-01 12:06 38.73871 -9.15929 2175 ft 197 kts 204°
2026-05-01 12:06 38.72554 -9.16632 2505 ft 214 kts 203°
2026-05-01 12:07 38.71098 -9.17389 2740 ft 241 kts 202°
2026-05-01 12:07 38.69461 -9.18234 3199 ft 260 kts 202°
2026-05-01 12:07 38.67763 -9.19116 3984 ft 265 kts 202°
2026-05-01 12:07 38.66079 -9.20007 4876 ft 265 kts 203°
2026-05-01 12:08 38.64362 -9.20932 5774 ft 264 kts 203°
2026-05-01 12:08 38.62624 -9.21631 6548 ft 266 kts 195°
2026-05-01 12:08 38.60831 -9.22229 7348 ft 267 kts 195°
2026-05-01 12:08 38.59027 -9.22841 8082 ft 269 kts 195°
2026-05-01 12:09 38.57186 -9.23303 8800 ft 272 kts 183°
2026-05-01 12:09 38.55298 -9.23038 9512 ft 276 kts 166°
2026-05-01 12:09 38.53530 -9.22034 10206 ft 281 kts 151°
2026-05-01 12:09 38.51796 -9.20686 10526 ft 298 kts 152°
2026-05-01 12:10 38.49862 -9.19633 10651 ft 316 kts 164°
2026-05-01 12:10 38.45545 -9.17900 11598 ft 330 kts 165°
2026-05-01 12:10 38.43340 -9.17028 12238 ft 332 kts 165°
2026-05-01 12:11 38.38883 -9.15265 13498 ft 338 kts 165°
2026-05-01 12:11 38.36629 -9.14372 14117 ft 340 kts 166°
2026-05-01 12:11 38.34356 -9.13472 14662 ft 343 kts 166°
2026-05-01 12:12 38.32058 -9.12564 15183 ft 347 kts 166°
2026-05-01 12:12 38.29745 -9.11650 15708 ft 350 kts 166°
2026-05-01 12:12 38.27410 -9.10730 16217 ft 353 kts 166°
2026-05-01 12:12 38.25049 -9.09800 16730 ft 356 kts 166°
2026-05-01 12:13 38.22666 -9.08859 17213 ft 360 kts 166°
2026-05-01 12:13 38.20266 -9.07912 17709 ft 363 kts 167°
2026-05-01 12:13 38.17845 -9.06957 18189 ft 366 kts 167°
2026-05-01 12:13 38.15400 -9.05992 18634 ft 369 kts 167°
2026-05-01 12:14 38.12964 -9.05031 19026 ft 373 kts 167°
2026-05-01 12:14 38.10478 -9.04052 19418 ft 376 kts 167°
2026-05-01 12:14 38.07966 -9.03065 19802 ft 379 kts 167°
2026-05-01 12:14 38.05431 -9.02072 20179 ft 382 kts 167°
2026-05-01 12:15 38.02879 -9.01070 20533 ft 385 kts 167°
2026-05-01 12:15 38.00310 -9.00061 20885 ft 388 kts 168°
2026-05-01 12:15 37.97722 -8.99046 21235 ft 391 kts 168°
2026-05-01 12:15 37.95108 -8.98020 21586 ft 394 kts 168°
2026-05-01 12:16 37.92479 -8.96989 21928 ft 396 kts 168°
2026-05-01 12:16 37.89869 -8.95966 22258 ft 399 kts 168°
2026-05-01 12:16 37.87202 -8.94924 22599 ft 402 kts 168°
2026-05-01 12:16 37.84519 -8.93878 22936 ft 405 kts 168°
2026-05-01 12:17 37.81822 -8.92825 23281 ft 407 kts 168°
2026-05-01 12:17 37.79098 -8.91762 23619 ft 410 kts 168°
2026-05-01 12:17 37.76361 -8.90695 23918 ft 413 kts 169°
2026-05-01 12:17 37.73607 -8.89622 24204 ft 416 kts 169°
2026-05-01 12:18 37.70827 -8.88541 24483 ft 418 kts 169°
2026-05-01 12:18 37.68070 -8.87472 24759 ft 421 kts 169°
2026-05-01 12:18 37.65261 -8.86386 25049 ft 423 kts 169°
2026-05-01 12:18 37.62439 -8.85288 25335 ft 426 kts 169°
2026-05-01 12:19 37.59595 -8.84180 25619 ft 429 kts 169°
2026-05-01 12:19 37.56737 -8.83068 25900 ft 431 kts 169°
2026-05-01 12:19 37.53857 -8.81947 26178 ft 434 kts 169°
2026-05-01 12:19 37.50971 -8.80828 26453 ft 436 kts 169°
2026-05-01 12:20 37.48058 -8.79702 26721 ft 439 kts 169°
2026-05-01 12:20 37.45133 -8.78575 27000 ft 441 kts 170°
2026-05-01 12:20 37.42187 -8.77446 27267 ft 444 kts 170°
2026-05-01 12:20 37.39224 -8.76311 27542 ft 446 kts 170°
2026-05-01 12:21 37.36251 -8.75168 27813 ft 449 kts 170°
2026-05-01 12:21 37.33246 -8.74008 28084 ft 451 kts 170°
2026-05-01 12:21 37.30237 -8.72845 28336 ft 453 kts 170°
2026-05-01 12:21 37.27211 -8.71675 28594 ft 456 kts 170°
2026-05-01 12:22 37.24169 -8.70504 28845 ft 458 kts 170°
2026-05-01 12:22 37.21155 -8.69347 29087 ft 460 kts 170°
2026-05-01 12:22 37.18083 -8.68169 29354 ft 462 kts 170°
2026-05-01 12:22 37.14998 -8.66985 29599 ft 464 kts 170°
2026-05-01 12:23 37.11903 -8.65802 29833 ft 466 kts 170°
2026-05-01 12:23 37.08794 -8.64620 30067 ft 468 kts 170°
2026-05-01 12:23 37.05666 -8.63429 30279 ft 470 kts 170°
2026-05-01 12:23 37.02533 -8.62232 30454 ft 471 kts 170°
2026-05-01 12:24 36.99390 -8.61031 30639 ft 472 kts 170°
2026-05-01 12:24 36.96242 -8.59828 30821 ft 473 kts 170°
2026-05-01 12:24 36.93087 -8.58625 31007 ft 474 kts 170°
2026-05-01 12:24 36.89933 -8.57424 31269 ft 473 kts 170°
2026-05-01 12:25 36.86788 -8.56226 31534 ft 472 kts 170°
2026-05-01 12:25 36.80519 -8.53837 32061 ft 469 kts 171°
2026-05-01 12:25 36.77437 -8.52671 32311 ft 469 kts 171°
2026-05-01 12:26 36.74317 -8.51495 32564 ft 468 kts 171°
2026-05-01 12:26 36.68097 -8.49143 33080 ft 466 kts 171°
2026-05-01 12:26 36.64996 -8.47970 33335 ft 465 kts 171°
2026-05-01 12:27 36.61906 -8.46800 33594 ft 464 kts 171°
2026-05-01 12:27 36.55728 -8.44465 34101 ft 463 kts 171°
2026-05-01 12:28 36.49583 -8.42154 34549 ft 460 kts 171°
2026-05-01 12:28 36.46520 -8.41004 34767 ft 459 kts 171°
2026-05-01 12:28 36.40409 -8.38718 35149 ft 458 kts 171°
2026-05-01 12:29 36.37378 -8.37578 35191 ft 453 kts 171°
2026-05-01 12:29 36.28384 -8.34191 35190 ft 449 kts 171°
2026-05-01 12:30 36.19417 -8.30851 35191 ft 449 kts 171°
2026-05-01 12:31 36.13442 -8.28630 35193 ft 448 kts 171°
2026-05-01 12:31 36.07462 -8.26412 35185 ft 448 kts 171°
2026-05-01 12:32 36.01489 -8.24194 35185 ft 448 kts 171°
2026-05-01 12:32 35.92523 -8.20867 35187 ft 448 kts 171°
2026-05-01 12:33 35.86552 -8.18648 35187 ft 448 kts 171°
2026-05-01 12:33 35.80572 -8.16432 35186 ft 448 kts 171°
2026-05-01 12:34 35.74563 -8.15199 35188 ft 432 kts 186°
2026-05-01 12:34 35.68557 -8.14994 35183 ft 432 kts 186°
2026-05-01 12:35 35.62544 -8.14814 35184 ft 432 kts 186°
2026-05-01 12:35 35.56534 -8.14624 35182 ft 432 kts 186°
2026-05-01 12:36 35.50522 -8.14424 35180 ft 432 kts 186°
2026-05-01 12:36 35.44508 -8.14236 35181 ft 432 kts 186°
2026-05-01 12:37 35.38491 -8.14054 35179 ft 432 kts 186°
2026-05-01 12:37 35.32512 -8.13860 35181 ft 432 kts 186°
2026-05-01 12:38 35.26494 -8.13664 35179 ft 432 kts 186°
2026-05-01 12:38 35.20462 -8.13480 35180 ft 432 kts 186°
2026-05-01 12:39 35.14447 -8.13293 35182 ft 432 kts 185°
2026-05-01 12:39 35.08434 -8.13096 35178 ft 432 kts 185°
2026-05-01 12:40 35.02419 -8.12912 35176 ft 432 kts 185°
2026-05-01 12:40 34.96409 -8.12729 35177 ft 432 kts 185°
2026-05-01 12:41 34.91408 -8.12570 35173 ft 433 kts 185°
2026-05-01 12:41 34.85391 -8.12375 35169 ft 433 kts 185°
2026-05-01 12:42 34.79363 -8.12187 35171 ft 433 kts 185°
2026-05-01 12:42 34.73336 -8.12002 35171 ft 433 kts 185°
2026-05-01 12:43 34.67301 -8.11811 35173 ft 433 kts 185°
2026-05-01 12:43 34.61260 -8.11618 35169 ft 433 kts 185°
2026-05-01 12:44 34.55228 -8.11428 35169 ft 433 kts 185°
2026-05-01 12:45 34.43193 -8.11065 35172 ft 434 kts 185°
2026-05-01 12:45 34.37155 -8.10876 35175 ft 434 kts 185°
2026-05-01 12:46 34.31114 -8.10691 35178 ft 434 kts 185°
2026-05-01 12:46 34.25071 -8.10502 35177 ft 434 kts 185°
2026-05-01 12:47 34.19033 -8.10313 35177 ft 434 kts 185°
2026-05-01 12:47 34.12991 -8.10128 35172 ft 434 kts 185°
2026-05-01 12:48 34.06952 -8.09943 35174 ft 434 kts 185°
2026-05-01 12:48 34.00899 -8.09759 35175 ft 435 kts 185°
2026-05-01 12:49 33.94847 -8.09568 35175 ft 435 kts 185°
2026-05-01 12:49 33.88790 -8.09384 35175 ft 435 kts 185°
2026-05-01 12:50 33.82738 -8.09208 35163 ft 435 kts 185°
2026-05-01 12:50 33.76684 -8.09028 35159 ft 435 kts 185°
2026-05-01 12:51 33.70672 -8.08839 35158 ft 435 kts 185°
2026-05-01 12:52 33.61604 -8.08564 35146 ft 435 kts 185°
2026-05-01 12:52 33.52520 -8.08289 35141 ft 436 kts 185°
2026-05-01 12:53 33.43421 -8.08011 35137 ft 436 kts 185°
2026-05-01 12:54 33.37352 -8.07832 35127 ft 436 kts 185°
2026-05-01 12:54 33.28238 -8.07556 35130 ft 437 kts 185°
2026-05-01 12:55 33.19131 -8.07276 35126 ft 436 kts 185°
2026-05-01 12:56 33.13061 -8.07095 34697 ft 435 kts 185°
2026-05-01 12:56 33.10039 -8.07003 34132 ft 433 kts 185°
2026-05-01 12:56 33.07029 -8.06912 33531 ft 431 kts 185°
2026-05-01 12:56 33.04044 -8.06820 32996 ft 427 kts 184°
2026-05-01 12:57 33.01087 -8.06732 32458 ft 424 kts 185°
2026-05-01 12:57 32.95226 -8.06555 31403 ft 418 kts 185°
2026-05-01 12:57 32.92351 -8.06663 30881 ft 409 kts 193°
2026-05-01 12:58 32.89552 -8.07115 30376 ft 404 kts 194°
2026-05-01 12:58 32.86775 -8.07576 29824 ft 401 kts 194°
2026-05-01 12:58 32.84023 -8.08032 29322 ft 396 kts 194°
2026-05-01 12:59 32.78634 -8.08922 28353 ft 385 kts 194°
2026-05-01 12:59 32.75997 -8.09353 27873 ft 380 kts 194°
2026-05-01 12:59 32.70835 -8.10198 26966 ft 370 kts 194°
2026-05-01 13:00 32.65697 -8.10451 25491 ft 380 kts 173°
2026-05-01 13:00 32.63084 -8.09682 24543 ft 393 kts 171°
2026-05-01 13:01 32.57662 -8.08005 22680 ft 407 kts 170°
2026-05-01 13:01 32.54958 -8.07151 22236 ft 398 kts 170°
2026-05-01 13:01 32.49691 -8.05495 21309 ft 385 kts 170°
2026-05-01 13:02 32.47115 -8.04695 20837 ft 380 kts 170°
2026-05-01 13:07 31.98905 -7.89912 12040 ft 304 kts 168°
2026-05-01 13:07 31.96866 -7.89288 11654 ft 302 kts 168°
2026-05-01 13:07 31.94841 -7.88670 11275 ft 299 kts 168°
2026-05-01 13:08 31.92842 -7.88060 10895 ft 296 kts 168°
2026-05-01 13:08 31.90859 -7.87454 10520 ft 293 kts 168°
2026-05-01 13:08 31.89560 -7.87058 10288 ft 290 kts 168°
2026-05-01 13:08 31.87210 -7.86340 10131 ft 285 kts 167°
2026-05-01 13:09 31.85292 -7.85755 10076 ft 285 kts 167°
2026-05-01 13:09 31.83368 -7.85171 9747 ft 286 kts 167°
2026-05-01 13:09 31.81453 -7.84587 9368 ft 283 kts 167°
2026-05-01 13:09 31.79555 -7.84008 9005 ft 281 kts 167°
2026-05-01 13:10 31.77661 -7.83434 8644 ft 280 kts 167°
2026-05-01 13:10 31.75773 -7.82864 8285 ft 280 kts 167°
2026-05-01 13:10 31.73893 -7.82296 7927 ft 277 kts 167°
2026-05-01 13:10 31.72033 -7.81734 7576 ft 274 kts 167°
2026-05-01 13:11 31.70198 -7.81177 7223 ft 270 kts 167°
2026-05-01 13:11 31.68387 -7.80629 6874 ft 267 kts 167°
2026-05-01 13:11 31.66579 -7.80185 6526 ft 264 kts 178°
2026-05-01 13:11 31.64783 -7.80337 6117 ft 263 kts 188°
2026-05-01 13:12 31.62969 -7.80592 5705 ft 262 kts 187°
2026-05-01 13:12 31.61161 -7.80851 5345 ft 261 kts 189°
2026-05-01 13:12 31.59505 -7.81602 4989 ft 256 kts 221°
2026-05-01 13:12 31.58564 -7.83309 4640 ft 251 kts 258°
2026-05-01 13:13 31.58479 -7.85320 4323 ft 247 kts 276°
2026-05-01 13:13 31.58732 -7.87300 4016 ft 243 kts 282°
2026-05-01 13:13 31.59096 -7.89153 3803 ft 225 kts 287°
2026-05-01 13:13 31.59512 -7.90834 3496 ft 205 kts 283°
2026-05-01 13:14 31.59710 -7.92420 3228 ft 192 kts 278°
2026-05-01 13:14 31.59836 -7.93871 3108 ft 167 kts 277°
2026-05-01 13:14 31.59942 -7.95183 2881 ft 157 kts 277°
2026-05-01 13:14 31.60057 -7.96454 2589 ft 157 kts 278°
2026-05-01 13:15 31.60175 -7.97730 2317 ft 155 kts 277°
2026-05-01 13:15 31.60283 -7.98967 2118 ft 152 kts 278°
2026-05-01 13:15 31.60392 -8.00193 1881 ft 150 kts 278°
2026-05-01 13:15 31.60492 -8.01391 1709 ft 147 kts 279°
2026-05-01 13:16 31.60597 -8.02575 1551 ft 141 kts 278°
2026-05-01 13:16 31.60679 -8.03524 1542 ft 89 kts 276°
2026-05-01 13:16 31.60729 -8.04046 1532 ft 41 kts 275°
2026-05-01 13:17 31.60580 -8.04332 1546 ft 10 kts 105°
2026-05-01 13:17 31.60570 -8.04240 1541 ft 11 kts 96°
2026-05-01 13:18 31.60556 -8.04083 1538 ft 10 kts 96°
2026-05-01 13:18 31.60545 -8.03956 1548 ft 22 kts 96°
2026-05-01 13:18 31.60528 -8.03745 1538 ft 27 kts 95°
2026-05-01 13:18 31.60506 -8.03526 1548 ft 27 kts 97°
2026-05-01 13:19 31.60487 -8.03312 1549 ft 26 kts 96°
2026-05-01 13:19 31.60468 -8.03103 1549 ft 25 kts 95°
2026-05-01 13:19 31.60438 -8.02701 1549 ft 24 kts 96°
2026-05-01 13:20 31.60401 -8.02539 1549 ft 15 kts 153°
2026-05-01 13:20 31.60331 -8.02543 1549 ft 0 kts 185°
2026-05-01 13:20 31.60328 -8.02544 1549 ft 3 kts 185°
2026-05-01 13:21 31.60307 -8.02546 1549 ft 0 kts 185°